{"data":{"norad_id":52634,"epoch":"2026-09-20T04:39:50.001408Z","epoch_age_seconds":92839,"freshness":"FRESH","line1":"1 52634U 22052AN  26263.19432872  .00001232  00000+0  46225-4 0  9996","line2":"2 52634  53.1593 104.1195 0001171  84.7481 275.3656 15.35403476240515","mean_motion":15.35403476,"eccentricity":0.0001171,"inclination_deg":53.1593,"raan_deg":104.1195,"arg_perigee_deg":84.7481,"mean_anomaly_deg":275.3656,"bstar":4.6225e-5,"rev_number":24051,"period_min":93.786423080887,"perigee_km":458.92160924159,"apogee_km":460.52303589494,"semimajor_km":6837.8593225683,"source":"CELESTRAK","updated_at":"2026-09-20T09:00:40.096504Z"}}